Date,TemperatureHighF,TemperatureAvgF,TemperatureLowF,DewpointHighF,DewpointAvgF,DewpointLowF,HumidityHigh,HumidityAvg,HumidityLow,PressureMaxIn,PressureMinIn,WindSpeedMaxMPH,WindSpeedAvgMPH,GustSpeedMaxMPH,PrecipitationSumIn
2013-6-1,92,79,64,-100,-100,-100,0,0,100,0.00,40.00,7,3,8,0.00
2013-6-2,91,76,68,-100,-100,-100,0,0,100,0.00,40.00,11,6,16,0.00
2013-6-3,95,75,62,-100,-100,-100,0,0,100,0.00,40.00,8,-16,16,0.00
2013-6-4,94,80,59,-100,-100,-100,0,0,100,0.00,40.00,5,2,9,0.00
2013-6-5,95,81,67,-100,-100,-100,0,0,100,0.00,40.00,6,3,7,0.00
2013-6-6,91,77,65,-100,-100,-100,0,0,100,0.00,40.00,9,4,12,0.00
2013-6-7,91,76,69,-100,-100,-100,0,0,100,0.00,40.00,7,4,10,0.00
2013-6-8,98,83,62,-100,-100,-100,0,0,100,0.00,40.00,9,3,10,0.00
2013-6-9,94,83,72,-100,-100,-100,0,0,100,0.00,40.00,5,2,7,0.00
2013-6-10,98,86,73,-100,-100,-100,0,0,100,0.00,40.00,6,3,8,0.00
2013-6-11,99,88,70,-100,-100,-100,0,0,100,0.00,40.00,7,3,8,0.00
2013-6-12,99,85,69,-100,-100,-100,0,0,100,0.00,40.00,5,3,8,0.00
2013-6-13,94,84,73,-100,-100,-100,0,0,100,0.00,40.00,7,4,8,0.00
2013-6-14,92,76,68,-100,-100,-100,0,0,100,0.00,40.00,6,3,8,0.00
2013-6-15,94,80,65,-100,-100,-100,0,0,100,0.00,40.00,5,2,7,0.00
2013-6-16,97,84,73,-100,-100,-100,0,0,100,0.00,40.00,4,2,8,0.00
2013-6-17,94,82,69,-100,-100,-100,0,0,100,0.00,40.00,10,3,12,0.00
2013-6-18,96,81,69,-100,-100,-100,0,0,100,0.00,40.00,8,4,9,0.00
2013-6-19,99,85,70,-100,-100,-100,0,0,100,0.00,40.00,6,4,8,0.00
2013-6-20,97,85,73,-100,-100,-100,0,0,100,0.00,40.00,8,3,8,0.00
2013-6-22,98,89,79,-100,-100,-100,0,0,100,0.00,40.00,6,3,8,0.00
2013-6-23,96,83,67,-100,-100,-100,0,0,100,0.00,40.00,4,2,8,0.00
2013-6-24,97,84,68,-100,-100,-100,0,0,100,0.00,40.00,7,2,8,0.00
2013-6-25,95,80,66,-100,-100,-100,0,0,100,0.00,40.00,4,2,7,0.00
2013-6-26,98,84,62,-100,-100,-100,0,0,100,0.00,40.00,5,2,8,0.00
2013-6-27,103,81,65,-100,-100,-100,0,0,100,0.00,40.00,4,3,6,0.00
2013-6-28,95,86,76,-100,-100,-100,0,0,100,0.00,40.00,9,4,10,0.00
2013-6-29,98,87,68,-100,-100,-100,0,0,100,0.00,40.00,6,3,8,0.00
2013-6-30,95,86,73,-100,-100,-100,0,0,100,0.00,40.00,6,3,8,0.00